Weather History for Taunton, MA

Change the Weather History Date:

Thursday, February 9, 2012

  Actual Average Record
Temperature  
Mean Temperature 2 °C -  
Max Temperature 8 °C 2 °C 13 °C (1949)
Min Temperature -6 °C -10 °C -19 °C (1978)
Degree Days  
Heating Degree Days 30    
Moisture  
Dew Point -8 °C    
Average Humidity 57    
Maximum Humidity 92    
Minimum Humidity 22    
Precipitation  
Precipitation 0.00 mm - - ()
Sea Level Pressure  
Sea Level Pressure 1017 hPa    
Wind  
Wind Speed 6 km/h (West)    
Max Wind Speed 14 km/h    
Max Gust Speed 26 km/h    
Visibility 16 kilometers    
Events Snow    
Averages and records for this station are not official NWS values.
T = Trace of Precipitation, MM = Missing Value Source: NWS Daily Summary

Daily Weather History Graph

Daily Weather History Graph

Search for Another Location

Airport:

Trip Planner

Search our weather history database for the weather conditions in past years. The results will help you decide how hot, cold, wet, or windy it might be!

Date:

Astronomy

Feb. 09, 2012 Rise Set
Actual Time 6:48 AM EST 5:08 PM EST
Civil Twilight 6:19 AM EST 5:37 PM EST
Nautical Twilight 5:46 AM EST 6:10 PM EST
Astronomical Twilight 5:13 AM EST 6:43 PM EST
Moon 7:37 PM EST (2/9) 7:19 AM EST (2/9)
Length of Visible Light 11h 18m
Length of Day
10h 20m
Waning Gibbous, 96% of the Moon is Illuminated
Feb 9
Waning Gibbous
Feb 14
Last Quarter
Feb 21
New
Feb 29
First Quarter
Mar 8
Full

Hourly Weather History & Observations

Time (EST) Temp. Windchill Dew Point Humidity Pressure Visibility Wind Dir Wind Speed Gust Speed Precip Events Conditions
12:52 AM 0.6 °C -1.1 °C -5.6 °C 64% 1017.9 hPa 16.1 km SE 5.6 km/h / 1.5 m/s - N/A   Overcast
1:52 AM -0.6 °C -3.8 °C -3.3 °C 82% 1017.6 hPa 12.9 km SE 9.3 km/h / 2.6 m/s - 0.0 mm Snow Light Snow
2:52 AM -1.1 °C - -2.8 °C 88% 1016.7 hPa 16.1 km Calm Calm - 0.0 mm   Overcast
3:52 AM -2.8 °C - -3.9 °C 92% 1015.9 hPa 16.1 km Calm Calm - N/A   Clear
4:52 AM -3.3 °C - -4.4 °C 92% 1015.6 hPa 16.1 km Calm Calm - N/A   Mostly Cloudy
5:52 AM -4.4 °C - -5.6 °C 91% 1015.6 hPa 16.1 km Calm Calm - N/A   Clear
6:52 AM -5.0 °C - -6.1 °C 92% 1015.7 hPa 14.5 km Calm Calm - N/A   Clear
7:52 AM -2.2 °C - -3.3 °C 92% 1016.3 hPa 16.1 km Calm Calm - N/A   Clear
8:52 AM 1.7 °C -1.9 °C -8.3 °C 48% 1016.4 hPa 16.1 km NW 13.0 km/h / 3.6 m/s - N/A   Clear
9:52 AM 3.9 °C 0.8 °C -10.6 °C 34% 1016.5 hPa 16.1 km NW 13.0 km/h / 3.6 m/s 25.9 km/h / 7.2 m/s N/A   Clear
10:52 AM 5.0 °C 1.8 °C -11.7 °C 29% 1016.4 hPa 16.1 km NW 14.8 km/h / 4.1 m/s - N/A   Clear
11:52 AM 6.1 °C 3.8 °C -11.7 °C 27% 1015.6 hPa 16.1 km Variable 11.1 km/h / 3.1 m/s - N/A   Clear
12:52 PM 7.2 °C 5.1 °C -12.2 °C 24% 1015.1 hPa 16.1 km West 11.1 km/h / 3.1 m/s - N/A   Clear
1:52 PM 7.8 °C 5.5 °C -11.7 °C 24% 1015.0 hPa 16.1 km West 13.0 km/h / 3.6 m/s - N/A   Clear
2:52 PM 8.3 °C - -12.2 °C 22% 1015.2 hPa 16.1 km Variable 7.4 km/h / 2.1 m/s - N/A   Clear
3:52 PM 8.3 °C - -12.2 °C 22% 1015.4 hPa 16.1 km Variable 11.1 km/h / 3.1 m/s - N/A   Clear
4:52 PM 6.7 °C 4.9 °C -10.6 °C 28% 1016.0 hPa 16.1 km West 9.3 km/h / 2.6 m/s - N/A   Clear
5:52 PM 2.2 °C 0.7 °C -10.6 °C 39% 1016.7 hPa 16.1 km West 5.6 km/h / 1.5 m/s - N/A   Clear
6:52 PM -1.1 °C - -7.2 °C 64% 1017.6 hPa 16.1 km Calm Calm - N/A   Clear
7:52 PM -2.8 °C -5.0 °C -7.2 °C 72% 1017.9 hPa 16.1 km West 5.6 km/h / 1.5 m/s - N/A   Clear
8:52 PM -3.3 °C - -7.8 °C 71% 1018.6 hPa 16.1 km Calm Calm - N/A   Clear
9:52 PM -4.4 °C - -7.2 °C 81% 1018.8 hPa 16.1 km Calm Calm - N/A   Clear
10:52 PM -4.4 °C - -7.8 °C 77% 1019.2 hPa 16.1 km Calm Calm - N/A   Clear
11:52 PM -6.1 °C - -8.9 °C 81% 1019.2 hPa 16.1 km Calm Calm - N/A   Clear